• Em Portugal
  • Lista de países
  • Para 7 dias
  • Temperatura da água
  • Mapas de satélite
  • Mapa do tempo
  • Widgets de tempo
  • user-avatar
    Iniciar Sessão

    Previsão horária em Resht

    Hoje, 19 Setembro, Terça-feira

    Tempo Temperatura Precipitação Vento Pressão Humidade
    00:00 +25°C° 0 mm 1 m/s 763 mmHg 53%
    01:00 +25°C° 0 mm 1 m/s 763 mmHg 51%
    02:00 +24°C° 0 mm 2 m/s 762 mmHg 49%
    03:00 +24°C° 0 mm 2 m/s 763 mmHg 43%
    04:00 +24°C° 0 mm 2 m/s 763 mmHg 42%
    05:00 +24°C° 0 mm 2 m/s 763 mmHg 40%
    06:00 +24°C° 0 mm 2 m/s 763 mmHg 39%
    07:00 +27°C° 0 mm 2 m/s 763 mmHg 33%
    08:00 +30°C° 0 mm 2 m/s 763 mmHg 27%
    09:00 +33°C° 0 mm 1 m/s 763 mmHg 24%
    10:00 +35°C° 0 mm 2 m/s 763 mmHg 23%
    11:00 +36°C° 0 mm 2 m/s 763 mmHg 22%
    12:00 +36°C° 0 mm 3 m/s 762 mmHg 21%
    13:00 +36°C° 0 mm 3 m/s 762 mmHg 24%
    14:00 +36°C° 0 mm 3 m/s 762 mmHg 27%
    15:00 +36°C° 0 mm 3 m/s 761 mmHg 30%
    16:00 +33°C° 0 mm 3 m/s 761 mmHg 41%
    17:00 +30°C° 0 mm 3 m/s 761 mmHg 51%
    18:00 +28°C° 0 mm 2 m/s 761 mmHg 62%
    19:00 +27°C° 0 mm 2 m/s 762 mmHg 64%
    20:00 +27°C° 0 mm 2 m/s 762 mmHg 67%
    21:00 +26°C° 0 mm 1 m/s 762 mmHg 70%
    22:00 +26°C° 0 mm 1 m/s 762 mmHg 68%
    23:00 +26°C° 0 mm 1 m/s 762 mmHg 67%

    Amanhã, 20 Setembro, Quarta-feira

    Tempo Temperatura Precipitação Vento Pressão Humidade
    00:00 +25°C° 0 mm 1 m/s 762 mmHg 66%
    01:00 +25°C° 0 mm 1 m/s 762 mmHg 64%
    02:00 +25°C° 0 mm 1 m/s 762 mmHg 61%
    03:00 +25°C° 0 mm 1 m/s 762 mmHg 58%
    04:00 +25°C° 0 mm 1 m/s 762 mmHg 55%
    05:00 +25°C° 0 mm 1 m/s 762 mmHg 52%
    06:00 +25°C° 0 mm 1 m/s 762 mmHg 49%
    07:00 +28°C° 0 mm 1 m/s 762 mmHg 42%
    08:00 +31°C° 0 mm 1 m/s 762 mmHg 34%
    09:00 +33°C° 0 mm 1 m/s 762 mmHg 27%
    10:00 +34°C° 0 mm 1 m/s 762 mmHg 25%
    11:00 +36°C° 0 mm 2 m/s 761 mmHg 24%
    12:00 +37°C° 0 mm 2 m/s 761 mmHg 23%
    13:00 +37°C° 0 mm 3 m/s 761 mmHg 25%
    14:00 +36°C° 0 mm 3 m/s 760 mmHg 28%
    15:00 +36°C° 0 mm 3 m/s 760 mmHg 30%
    16:00 +34°C° 0 mm 2 m/s 760 mmHg 40%
    17:00 +30°C° 0 mm 2 m/s 760 mmHg 50%
    18:00 +28°C° 0 mm 1 m/s 760 mmHg 59%
    19:00 +27°C° 0 mm 1 m/s 761 mmHg 62%
    20:00 +27°C° 0 mm 1 m/s 761 mmHg 64%
    21:00 +26°C° 0 mm 1 m/s 761 mmHg 66%
    22:00 +26°C° 0 mm 1 m/s 761 mmHg 64%
    23:00 +26°C° 0 mm 1 m/s 761 mmHg 62%

    Depois de amanhã, 21 Setembro, Quinta-feira

    Tempo Temperatura Precipitação Vento Pressão Humidade
    00:00 +26°C° 0 mm 1 m/s 761 mmHg 60%
    01:00 +26°C° 0 mm 1 m/s 761 mmHg 58%
    02:00 +26°C° 0 mm 1 m/s 761 mmHg 56%
    03:00 +25°C° 0 mm 1 m/s 761 mmHg 54%
    04:00 +25°C° 0 mm 1 m/s 761 mmHg 53%
    05:00 +25°C° 0 mm 1 m/s 761 mmHg 51%
    06:00 +25°C° 0 mm 1 m/s 761 mmHg 50%
    07:00 +28°C° 0 mm 1 m/s 761 mmHg 42%
    08:00 +30°C° 0 mm 1 m/s 761 mmHg 34%
    09:00 +33°C° 0 mm 1 m/s 761 mmHg 27%
    10:00 +34°C° 0 mm 1 m/s 761 mmHg 25%
    11:00 +36°C° 0 mm 2 m/s 761 mmHg 24%
    12:00 +37°C° 0 mm 2 m/s 760 mmHg 22%
    13:00 +36°C° 0 mm 2 m/s 760 mmHg 24%
    14:00 +36°C° 0 mm 3 m/s 760 mmHg 25%
    15:00 +36°C° 0 mm 3 m/s 759 mmHg 26%
    16:00 +32°C° 0 mm 2 m/s 759 mmHg 34%
    17:00 +30°C° 0 mm 2 m/s 759 mmHg 41%
    18:00 +28°C° 0 mm 2 m/s 760 mmHg 49%
    19:00 +27°C° 0 mm 1 m/s 760 mmHg 51%
    20:00 +27°C° 0 mm 1 m/s 760 mmHg 53%
    21:00 +26°C° 0 mm 1 m/s 760 mmHg 55%
    22:00 +26°C° 0 mm 1 m/s 760 mmHg 54%
    23:00 +26°C° 0 mm 1 m/s 760 mmHg 53%

    22 Setembro, Sexta-feira

    Tempo Temperatura Precipitação Vento Pressão Humidade
    00:00 +26°C° 0 mm 1 m/s 760 mmHg 53%
    01:00 +25°C° 0 mm 1 m/s 760 mmHg 52%
    02:00 +25°C° 0 mm 1 m/s 760 mmHg 51%
    03:00 +25°C° 0 mm 1 m/s 760 mmHg 51%
    04:00 +25°C° 0 mm 1 m/s 760 mmHg 50%
    05:00 +25°C° 0 mm 1 m/s 761 mmHg 49%
    06:00 +25°C° 0 mm 1 m/s 761 mmHg 47%
    07:00 +28°C° 0 mm 1 m/s 761 mmHg 41%
    08:00 +30°C° 0 mm 1 m/s 761 mmHg 34%
    09:00 +33°C° 0 mm 1 m/s 761 mmHg 28%
    10:00 +35°C° 0 mm 2 m/s 760 mmHg 27%
    11:00 +36°C° 0 mm 2 m/s 760 mmHg 26%
    12:00 +37°C° 0 mm 2 m/s 760 mmHg 25%
    13:00 +36°C° 0 mm 3 m/s 759 mmHg 27%
    14:00 +36°C° 0 mm 3 m/s 759 mmHg 29%
    15:00 +36°C° 0 mm 3 m/s 758 mmHg 31%
    16:00 +33°C° 0 mm 3 m/s 759 mmHg 41%
    17:00 +30°C° 0 mm 2 m/s 759 mmHg 50%
    18:00 +28°C° 0 mm 1 m/s 759 mmHg 60%
    19:00 +27°C° 0 mm 1 m/s 759 mmHg 62%
    20:00 +27°C° 0 mm 1 m/s 760 mmHg 65%
    21:00 +26°C° 0 mm 1 m/s 760 mmHg 68%
    22:00 +26°C° 0 mm 1 m/s 760 mmHg 67%
    23:00 +26°C° 0 mm 1 m/s 760 mmHg 67%

    23 Setembro, Sábado

    Tempo Temperatura Precipitação Vento Pressão Humidade
    00:00 +26°C° 0 mm 1 m/s 760 mmHg 66%
    01:00 +26°C° 0 mm 1 m/s 760 mmHg 66%
    02:00 +26°C° 0 mm 1 m/s 760 mmHg 66%
    03:00 +25°C° 0 mm 1 m/s 760 mmHg 66%
    04:00 +25°C° 0 mm 1 m/s 761 mmHg 66%
    05:00 +25°C° 0 mm 1 m/s 761 mmHg 67%
    06:00 +25°C° 0 mm 1 m/s 761 mmHg 67%
    07:00 +27°C° 0 mm 2 m/s 762 mmHg 60%
    08:00 +29°C° 0 mm 2 m/s 762 mmHg 53%
    09:00 +31°C° 0 mm 2 m/s 762 mmHg 45%
    10:00 +33°C° 0 mm 3 m/s 762 mmHg 43%
    11:00 +34°C° 0 mm 3 m/s 761 mmHg 41%
    12:00 +35°C° 0 mm 3 m/s 761 mmHg 39%
    13:00 +35°C° 0 mm 3 m/s 761 mmHg 43%
    14:00 +34°C° 0 mm 3 m/s 761 mmHg 46%
    15:00 +34°C° 0 mm 3 m/s 761 mmHg 50%
    16:00 +31°C° 0 mm 3 m/s 761 mmHg 59%
    17:00 +29°C° 0 mm 2 m/s 761 mmHg 68%
    18:00 +27°C° 0 mm 1 m/s 762 mmHg 76%
    19:00 +27°C° 0 mm 2 m/s 762 mmHg 78%
    20:00 +26°C° 0 mm 2 m/s 762 mmHg 79%
    21:00 +26°C° 0 mm 2 m/s 763 mmHg 80%
    22:00 +26°C° 0 mm 2 m/s 763 mmHg 80%
    23:00 +25°C° 0 mm 2 m/s 763 mmHg 80%

    24 Setembro, Domingo

    Tempo Temperatura Precipitação Vento Pressão Humidade
    00:00 +25°C° 0 mm 2 m/s 763 mmHg 80%
    01:00 +25°C° 0 mm 1 m/s 763 mmHg 79%
    02:00 +25°C° 0 mm 1 m/s 763 mmHg 78%
    03:00 +24°C° 0 mm 1 m/s 762 mmHg 77%
    04:00 +24°C° 0 mm 1 m/s 763 mmHg 75%
    05:00 +24°C° 0 mm 1 m/s 763 mmHg 73%
    06:00 +24°C° 0 mm 2 m/s 763 mmHg 71%
    07:00 +27°C° 0 mm 2 m/s 763 mmHg 62%
    08:00 +29°C° 0 mm 2 m/s 763 mmHg 53%
    09:00 +31°C° 0 mm 2 m/s 763 mmHg 44%
    10:00 +33°C° 0 mm 3 m/s 763 mmHg 41%
    11:00 +34°C° 0 mm 3 m/s 763 mmHg 37%
    12:00 +35°C° 0 mm 3 m/s 762 mmHg 34%
    13:00 +35°C° 0 mm 3 m/s 762 mmHg 36%
    14:00 +34°C° 0 mm 3 m/s 762 mmHg 38%
    15:00 +34°C° 0 mm 3 m/s 761 mmHg 40%
    16:00 +31°C° 0 mm 3 m/s 762 mmHg 47%
    17:00 +29°C° 0 mm 2 m/s 762 mmHg 54%
    18:00 +27°C° 0 mm 2 m/s 762 mmHg 61%
    19:00 +26°C° 0 mm 2 m/s 763 mmHg 62%
    20:00 +26°C° 0 mm 2 m/s 763 mmHg 63%
    21:00 +25°C° 0 mm 2 m/s 763 mmHg 64%
    22:00 +25°C° 0 mm 2 m/s 763 mmHg 62%
    23:00 +25°C° 0 mm 2 m/s 763 mmHg 61%
    Mostrar mais